{"data":{"norad_id":65390,"intl_designator":"2025-191M","name":"STARLINK-35083","alt_names":[],"object_type":"PAYLOAD","status":"ACTIVE","operator":null,"country":"US","launch_date":"2025-08-30","launch_site_code":"AFWTR","launch_vehicle":null,"mission":null,"orbit_class":"UNKNOWN","rcs_meters":null,"size_class":null,"mass_kg":null,"dimensions":null,"purposes":["comms"],"wikipedia_slug":null,"has_3d_model":false,"image_url":null,"decayed_at":null,"tle_current":{"epoch":"2026-05-25T02:32:10.854816Z","epoch_age_seconds":56191,"freshness":"FRESH","line1":"1 65390U 25191M   26145.10568119  .00002983  00000+0  21067-3 0  9990","line2":"2 65390  97.4505  16.4086 0002290  72.5298 287.6180 15.05658518 41760","mean_motion":15.05658518,"eccentricity":0.000229,"inclination_deg":97.4505,"raan_deg":16.4086,"arg_perigee_deg":72.5298,"mean_anomaly_deg":287.618,"bstar":0.00021067,"rev_number":4176,"period_min":95.639215850403,"perigee_km":547.89860059781,"apogee_km":551.07145148574,"semimajor_km":6927.6220260418,"source":"CELESTRAK","updated_at":"2026-05-25T13:38:20.774180Z"}}}